Location: Barcelona
(41.3830°N, 2.1830°E)
Time: 18:12:49
(UTC+02:00)

ISS - Pass Details

Date: 14 August 2017
Orbit: 401 x 408 km, 51.6° (Epoch: 19 August)

Event Time Altitude Azimuth Distance (km) Brightness Sun altitude
Rises 21:51:53 0° 287° (WNW) 2,313 1.8 -11.1°
Reaches altitude 10° 21:55:04 10° 253° (WSW) 1,448 -0.4 -11.6°
Maximum altitude 21:56:17 12° 231° (SW) 1,348 -0.9 -11.8°
Drops below altitude 10° 21:57:30 10° 208° (SSW) 1,444 -1.1 -12.0°
Enters shadow 21:59:30 - 183° (S) 1,923 -0.7 -12.3°
